CW7762 Weather Reports


time (UTC)temp
F
wind
direction
speed
knots
gust
knots
rain 1hr
in
rain 24hr
in
rain mn
in
humidity
%
barometer
mb
20260509103214 50 151 4.3 7.8 0.00 0.07 0.00 96 1005.4
20260509100214 49 191 3.5 7.8 0.00 0.07 0.00 95 1005.5
20260509093215 50 203 3.5 7.0 0.00 0.07 0.00 95 1005.6
20260509090214 50 175 4.3 7.0 0.00 0.07 0.00 93 1005.8
20260509083214 50 211 4.3 7.0 0.00 0.07 0.00 92 1005.6
20260509080214 50 188 0.9 4.3 0.00 0.07 0.00 91 1005.7
20260509073214 51 219 1.7 4.3 0.00 0.07 0.00 91 1005.7
20260509063214 53 211 3.5 6.1 0.00 0.07 0.00 89 1006.2
20260509060214 53 209 5.2 8.7 0.00 0.07 0.00 89 1006.5
20260509053214 54 210 5.2 10.4 0.00 0.07 0.00 88 1006.6
20260509050214 55 206 4.3 7.8 0.00 0.07 0.00 88 1006.9
20260509043214 55 224 5.2 7.8 0.00 0.07 0.07 87 1007.0
20260509040244 56 217 7.0 11.3 0.00 0.07 0.07 85 1007.4
20260509030214 57 183 3.5 8.7 0.00 0.07 0.07 81 1007.5
20260509023244 58 202 3.5 7.8 0.00 0.07 0.07 76 1007.5
20260509020214 59 202 5.2 10.4 0.00 0.07 0.07 74 1007.3
20260509013213 60 200 8.7 11.3 0.00 0.07 0.07 72 1007.0
20260509010213 61 184 1.7 11.3 0.00 0.07 0.07 71 1007.1
20260509003213 63 211 8.7 13.9 0.00 0.07 0.07 68 1006.9
20260509000213 65 211 9.6 12.2 0.00 0.07 0.07 60 1006.7
20260508233243 65 222 5.2 14.8 0.00 0.07 0.07 58 1006.7
20260508230213 66 254 7.0 13.9 0.00 0.07 0.07 56 1006.9
20260508220213 67 238 12.2 17.4 0.00 0.07 0.07 62 1007.1
20260508213213 65 212 6.1 15.6 0.00 0.07 0.07 65 1007.3
20260508210213 66 228 7.0 13.9 0.00 0.07 0.07 63 1007.4
20260508200244 65 220 4.3 11.3 0.00 0.07 0.07 63 1008.2
20260508193213 64 240 1.7 10.4 0.00 0.07 0.07 64 1008.4
20260508190214 63 293 0.0 3.5 0.00 0.08 0.07 67 1008.7
20260508183243 63 242 0.0 6.1 0.00 0.08 0.07 67 1009.0
20260508180243 62 216 0.0 7.8 0.00 0.08 0.07 67 1009.3
20260508173213 63 126 1.7 7.8 0.00 0.08 0.07 68 1009.6
20260508170213 62 162 3.5 11.3 0.00 0.08 0.07 69 1010.2
20260508163213 63 214 7.0 11.3 0.00 0.08 0.07 67 1010.7
20260508160213 62 120 0.9 11.3 0.00 0.08 0.07 70 1010.7
20260508153243 61 155 9.6 10.4 0.00 0.08 0.07 76 1011.1
20260508150213 59 209 3.5 7.8 0.00 0.08 0.07 80 1011.2
20260508143213 57 194 7.0 10.4 0.00 0.08 0.07 86 1011.4
20260508140243 54 176 7.0 8.7 0.00 0.08 0.07 96 1011.6
20260508133213 53 171 0.0 7.0 0.02 0.08 0.07 96 1011.3
20260508130243 51 180 3.5 7.8 0.02 0.08 0.07 96 1011.7